Station Historical Data
Daily Summary for February 14, 2012 Units:  Metric    English   Both
« Previous Day
Next Day »
Daily Weekly Monthly Yearly Custom
  High: Low: Average:
Temperature: 7.9 °C 2.1 °C 5.1 °C
Dew Point: 6.9 °C 0.4 °C 4.2 °C
Humidity: 97% 88% 94%
Wind Speed: 25.7km/h 0km/h 6.3km/h
Wind Gust: 27.4km/h - -
Wind- - South
Pressure: 1020.2 hPa 1014.1 hPa -
Precipitation: 1.27 mm    
Historical Graphs
 
 
Tabular Data for February 14, 2012
Time Temperature Dew Point Pressure Wind Wind Speed Wind Gust Humidity Rainfall Rate (Hourly) Conditions
00:00 2.2 °C 0.4 °C 1016.8 hPa SSE 8 km/h 16.1 km/h 88% 0 mm
00:02 2.2 °C 0.4 °C 1016.8 hPa SE 11.3 km/h 16.1 km/h 88% 0 mm
00:07 2.2 °C 0.4 °C 1017.2 hPa SSE 8 km/h 17.7 km/h 88% 0 mm
00:12 2.2 °C 0.4 °C 1017.2 hPa SSE 9.7 km/h 16.1 km/h 88% 0 mm
00:17 2.2 °C 0.6 °C 1017.2 hPa SSE 11.3 km/h 14.5 km/h 89% 0 mm
00:22 2.2 °C 0.6 °C 1016.8 hPa SE 14.5 km/h 19.3 km/h 89% 1.27 mm
00:27 2.2 °C 0.6 °C 1016.8 hPa South 17.7 km/h 20.9 km/h 89% 1.27 mm
00:32 2.2 °C 0.7 °C 1016.5 hPa SE 9.7 km/h 16.1 km/h 90% 1.27 mm
00:37 2.1 °C 0.7 °C 1016.5 hPa ESE 16.1 km/h 16.1 km/h 90% 0 mm
00:42 2.1 °C 0.7 °C 1016.1 hPa SE 9.7 km/h 14.5 km/h 90% 0 mm
00:47 2.1 °C 0.7 °C 1016.1 hPa SE 11.3 km/h 17.7 km/h 90% 0 mm
00:52 2.2 °C 0.7 °C 1016.1 hPa SE 6.4 km/h 16.1 km/h 90% 0 mm
00:57 2.2 °C 0.7 °C 1016.1 hPa SE 11.3 km/h 14.5 km/h 90% 0 mm
01:02 2.2 °C 0.8 °C 1016.5 hPa SSE 11.3 km/h 16.1 km/h 90% 0 mm
01:07 2.3 °C 0.8 °C 1016.5 hPa SE 9.7 km/h 14.5 km/h 90% 0 mm
01:12 2.3 °C 0.9 °C 1016.5 hPa SSE 11.3 km/h 14.5 km/h 90% 0 mm
01:17 2.4 °C 0.9 °C 1016.5 hPa SE 9.7 km/h 14.5 km/h 90% 0 mm
01:22 2.4 °C 0.9 °C 1016.5 hPa SSE 8 km/h 17.7 km/h 90% 0 mm
01:27 2.4 °C 1 °C 1016.5 hPa SSE 12.9 km/h 16.1 km/h 90% 0 mm
01:32 2.5 °C 1 °C 1016.1 hPa SE 9.7 km/h 16.1 km/h 90% 0 mm
01:38 2.5 °C 1 °C 1015.8 hPa SE 16.1 km/h 16.1 km/h 90% 0 mm
01:43 2.5 °C 1 °C 1015.5 hPa SE 12.9 km/h 17.7 km/h 90% 0 mm
01:48 2.6 °C 1.1 °C 1015.5 hPa SE 12.9 km/h 20.9 km/h 90% 0 mm
01:53 2.6 °C 1.1 °C 1015.5 hPa SE 25.7 km/h 25.7 km/h 90% 0 mm
01:58 2.7 °C 1.2 °C 1015.1 hPa SE 17.7 km/h 24.1 km/h 90% 0 mm
02:03 2.7 °C 1.2 °C 1015.1 hPa ESE 14.5 km/h 27.4 km/h 90% 0 mm
02:08 2.7 °C 1.2 °C 1015.1 hPa SE 19.3 km/h 27.4 km/h 90% 0 mm
02:13 2.7 °C 1.2 °C 1015.1 hPa SSE 14.5 km/h 20.9 km/h 90% 0 mm
02:18 2.7 °C 1.2 °C 1015.1 hPa SE 14.5 km/h 20.9 km/h 90% 0 mm
02:23 2.7 °C 1.2 °C 1015.1 hPa SSE 14.5 km/h 16.1 km/h 90% 0 mm
02:28 2.7 °C 1.4 °C 1015.1 hPa SSE 9.7 km/h 22.5 km/h 91% 0 mm
02:33 2.7 °C 1.4 °C 1015.1 hPa ESE 20.9 km/h 24.1 km/h 91% 0 mm
02:38 2.7 °C 1.4 °C 1014.8 hPa SSE 16.1 km/h 16.1 km/h 91% 0 mm
02:43 2.7 °C 1.6 °C 1014.8 hPa SE 14.5 km/h 17.7 km/h 92% 0 mm
02:48 2.7 °C 1.6 °C 1014.8 hPa ESE 16.1 km/h 19.3 km/h 92% 0 mm
02:53 2.7 °C 1.7 °C 1014.8 hPa SE 14.5 km/h 20.9 km/h 93% 0 mm
02:58 2.7 °C 1.7 °C 1014.4 hPa SE 16.1 km/h 17.7 km/h 93% 0 mm
03:03 2.6 °C 1.6 °C 1014.4 hPa SE 9.7 km/h 16.1 km/h 93% 0 mm
03:08 2.7 °C 1.7 °C 1014.4 hPa SE 12.9 km/h 14.5 km/h 93% 0 mm
03:13 2.7 °C 1.8 °C 1014.4 hPa SSE 9.7 km/h 14.5 km/h 94% 0 mm
03:19 2.6 °C 1.7 °C 1014.4 hPa SE 11.3 km/h 16.1 km/h 94% 0 mm
03:24 2.7 °C 1.8 °C 1014.4 hPa SE 12.9 km/h 16.1 km/h 94% 6.1 mm
03:29 2.7 °C 1.8 °C 1014.4 hPa SSE 6.4 km/h 14.5 km/h 94% 1.78 mm
03:34 2.7 °C 1.8 °C 1014.4 hPa SE 9.7 km/h 14.5 km/h 94% 1.27 mm
03:39 2.8 °C 2.1 °C 1014.4 hPa SSE 14.5 km/h 16.1 km/h 95% 0 mm
03:44 2.8 °C 2.1 °C 1014.4 hPa SSE 6.4 km/h 14.5 km/h 95% 0 mm
03:49 2.8 °C 2.1 °C 1014.1 hPa SE 9.7 km/h 9.7 km/h 95% 0 mm
03:54 2.8 °C 2.1 °C 1014.1 hPa SSE 11.3 km/h 20.9 km/h 95% 0 mm
03:59 2.9 °C 2.2 °C 1014.1 hPa South 9.7 km/h 12.9 km/h 95% 0 mm
04:04 2.9 °C 2 °C 1014.1 hPa SE 8 km/h 16.1 km/h 94% 0 mm
04:09 2.9 °C 2.1 °C 1014.1 hPa ESE 9.7 km/h 14.5 km/h 94% 0 mm
04:14 2.9 °C 2.1 °C 1014.1 hPa SE 12.9 km/h 14.5 km/h 94% 0 mm
04:19 3 °C 2.1 °C 1014.1 hPa SE 6.4 km/h 14.5 km/h 94% 0 mm
04:24 3 °C 2.1 °C 1014.1 hPa SE 8 km/h 12.9 km/h 94% 0 mm
04:29 3 °C 2.1 °C 1014.1 hPa SSE 12.9 km/h 14.5 km/h 94% 0 mm
04:34 3.1 °C 2.3 °C 1014.1 hPa SSE 9.7 km/h 14.5 km/h 95% 0 mm
04:39 3.1 °C 2.3 °C 1014.1 hPa SE 12.9 km/h 19.3 km/h 95% 0 mm
04:44 3.1 °C 2.3 °C 1014.4 hPa SE 9.7 km/h 11.3 km/h 95% 0 mm
04:49 3.1 °C 2.3 °C 1014.4 hPa SE 11.3 km/h 14.5 km/h 95% 0 mm
04:54 3.1 °C 2.3 °C 1014.4 hPa South 14.5 km/h 16.1 km/h 95% 0 mm
04:59 3.1 °C 2.4 °C 1014.4 hPa SSW 4.8 km/h 12.9 km/h 95% 0 mm
05:04 3.1 °C 2.4 °C 1014.1 hPa SE 11.3 km/h 11.3 km/h 95% 0 mm
05:09 3.1 °C 2.4 °C 1014.1 hPa SE 11.3 km/h 12.9 km/h 95% 0 mm
05:14 3.1 °C 2.4 °C 1014.4 hPa SE 6.4 km/h 9.7 km/h 95% 0 mm
05:19 3.1 °C 2.4 °C 1014.4 hPa SSE 11.3 km/h 11.3 km/h 95% 0 mm
05:24 3.1 °C 2.4 °C 1014.1 hPa SE 9.7 km/h 11.3 km/h 95% 0 mm
05:29 3.1 °C 2.4 °C 1014.1 hPa SSE 6.4 km/h 11.3 km/h 95% 0 mm
05:34 3.1 °C 2.4 °C 1014.4 hPa SE 8 km/h 9.7 km/h 95% 0 mm
05:39 3.2 °C 2.4 °C 1014.1 hPa South 6.4 km/h 14.5 km/h 95% 0 mm
05:45 3.2 °C 2.4 °C 1014.4 hPa SE 6.4 km/h 12.9 km/h 95% 0 mm
05:50 3.2 °C 2.4 °C 1014.4 hPa SSE 4.8 km/h 9.7 km/h 95% 0 mm
05:55 3.2 °C 2.4 °C 1014.4 hPa SE 9.7 km/h 11.3 km/h 95% 0 mm
06:00 3.2 °C 2.5 °C 1014.4 hPa SSE 11.3 km/h 14.5 km/h 95% 0 mm
06:05 3.2 °C 2.5 °C 1014.4 hPa SSE 9.7 km/h 14.5 km/h 95% 0 mm
06:10 3.2 °C 2.5 °C 1014.4 hPa SSE 6.4 km/h 9.7 km/h 95% 0 mm
06:15 3.2 °C 2.5 °C 1014.4 hPa SSE 6.4 km/h 11.3 km/h 95% 0 mm
06:20 3.2 °C 2.5 °C 1014.4 hPa SSE 9.7 km/h 11.3 km/h 95% 0 mm
06:25 3.2 °C 2.5 °C 1014.4 hPa SE 6.4 km/h 11.3 km/h 95% 0 mm
06:30 3.2 °C 2.5 °C 1014.4 hPa SSE 8 km/h 11.3 km/h 95% 0 mm
06:35 3.2 °C 2.5 °C 1014.4 hPa SSE 8 km/h 9.7 km/h 95% 0 mm
06:40 3.2 °C 2.5 °C 1014.4 hPa SE 8 km/h 8 km/h 95% 0 mm
06:45 3.2 °C 2.7 °C 1014.4 hPa SE 8 km/h 11.3 km/h 96% 0 mm
06:46 3.2 °C 2.7 °C 1014.4 hPa SE 9.7 km/h 11.3 km/h 96% 0 mm
06:51 3.3 °C 2.7 °C 1014.4 hPa SE 6.4 km/h 8 km/h 96% 0 mm
06:56 3.3 °C 2.7 °C 1014.4 hPa SE 9.7 km/h 9.7 km/h 96% 0 mm
07:01 3.3 °C 2.7 °C 1014.8 hPa SSE 9.7 km/h 9.7 km/h 96% 0 mm
07:06 3.3 °C 2.7 °C 1014.8 hPa South 9.7 km/h 14.5 km/h 96% 0 mm
07:11 3.3 °C 2.7 °C 1014.8 hPa SSE 4.8 km/h 11.3 km/h 96% 0 mm
07:16 3.3 °C 2.8 °C 1014.8 hPa SSW 4.8 km/h 9.7 km/h 96% 0 mm
07:21 3.3 °C 2.7 °C 1014.8 hPa SE 4.8 km/h 8 km/h 96% 0 mm
07:26 3.3 °C 2.8 °C 1014.8 hPa SSE 6.4 km/h 8 km/h 96% 0 mm
07:32 3.3 °C 2.8 °C 1014.8 hPa SSE 3.2 km/h 9.7 km/h 96% 0 mm
07:37 3.4 °C 2.8 °C 1014.8 hPa ESE 8 km/h 8 km/h 96% 0 mm
07:42 3.4 °C 2.8 °C 1014.8 hPa SSE 8 km/h 9.7 km/h 96% 0 mm
07:47 3.4 °C 2.8 °C 1014.8 hPa SSE 4.8 km/h 8 km/h 96% 0 mm
07:52 3.4 °C 2.8 °C 1014.8 hPa SSE 6.4 km/h 9.7 km/h 96% 0 mm
07:57 3.4 °C 2.8 °C 1015.1 hPa SE 4.8 km/h 9.7 km/h 96% 0 mm
08:02 3.4 °C 2.9 °C 1015.1 hPa SSE 4.8 km/h 6.4 km/h 96% 0 mm
08:07 3.5 °C 2.9 °C 1015.1 hPa SSE 6.4 km/h 8 km/h 96% 0 mm
08:12 3.6 °C 3 °C 1015.5 hPa SSE 4.8 km/h 8 km/h 96% 0 mm
08:17 3.6 °C 3 °C 1015.5 hPa SSE 6.4 km/h 8 km/h 96% 0 mm
08:22 3.6 °C 3.1 °C 1015.5 hPa SE 4.8 km/h 8 km/h 96% 0 mm
08:27 3.7 °C 3.1 °C 1015.5 hPa SSE 6.4 km/h 8 km/h 96% 0 mm
08:32 3.7 °C 3.1 °C 1015.5 hPa SSE 3.2 km/h 8 km/h 96% 0 mm
08:37 3.7 °C 3.2 °C 1015.5 hPa SE 9.7 km/h 9.7 km/h 96% 0 mm
08:42 3.8 °C 3.2 °C 1015.8 hPa South 6.4 km/h 9.7 km/h 96% 0 mm
08:47 3.8 °C 3.3 °C 1015.5 hPa SE 4.8 km/h 11.3 km/h 96% 0 mm
08:52 3.9 °C 3.3 °C 1015.8 hPa SE 4.8 km/h 8 km/h 96% 0 mm
08:57 3.9 °C 3.4 °C 1015.8 hPa SSE 6.4 km/h 9.7 km/h 96% 0 mm
09:02 4 °C 3.4 °C 1015.8 hPa South 4.8 km/h 8 km/h 96% 0 mm
09:07 4.1 °C 3.5 °C 1015.8 hPa SSE 4.8 km/h 9.7 km/h 96% 0 mm
09:12 4.1 °C 3.6 °C 1015.8 hPa SE 9.7 km/h 9.7 km/h 96% 0 mm
09:17 4.2 °C 3.6 °C 1015.8 hPa South 8 km/h 12.9 km/h 96% 0 mm
09:22 4.2 °C 3.7 °C 1015.8 hPa SSE 8 km/h 12.9 km/h 96% 0 mm
09:27 4.3 °C 3.7 °C 1016.1 hPa SSE 6.4 km/h 11.3 km/h 96% 0 mm
09:32 4.3 °C 3.8 °C 1016.1 hPa SSE 8 km/h 9.7 km/h 97% 0 mm
09:38 4.3 °C 3.8 °C 1016.1 hPa SE 8 km/h 9.7 km/h 96% 0 mm
09:43 4.4 °C 4 °C 1016.1 hPa SE 3.2 km/h 11.3 km/h 97% 0 mm
09:48 4.4 °C 4 °C 1016.1 hPa SSE 8 km/h 11.3 km/h 97% 0 mm
09:53 4.5 °C 4.1 °C 1016.1 hPa SSE 9.7 km/h 9.7 km/h 97% 0 mm
09:58 4.6 °C 4.2 °C 1016.1 hPa SE 3.2 km/h 9.7 km/h 97% 0 mm
10:03 4.6 °C 4.2 °C 1016.1 hPa SSW 3.2 km/h 8 km/h 97% 0 mm
10:08 4.7 °C 4.3 °C 1016.1 hPa SSW 6.4 km/h 8 km/h 97% 0 mm
10:13 4.8 °C 4.4 °C 1016.1 hPa SSW 6.4 km/h 6.4 km/h 97% 0 mm
10:18 4.9 °C 4.4 °C 1016.1 hPa SSW 3.2 km/h 4.8 km/h 97% 0 mm
10:23 4.9 °C 4.5 °C 1016.1 hPa SSE 4.8 km/h 8 km/h 97% 0 mm
10:28 4.9 °C 4.5 °C 1016.1 hPa South 6.4 km/h 6.4 km/h 97% 0 mm
10:33 5 °C 4.6 °C 1016.1 hPa SE 4.8 km/h 6.4 km/h 97% 0 mm
10:38 5.1 °C 4.7 °C 1016.5 hPa SSW 3.2 km/h 8 km/h 97% 0 mm
10:43 5.2 °C 4.7 °C 1016.5 hPa SW 3.2 km/h 6.4 km/h 97% 0 mm
10:48 5.3 °C 4.8 °C 1016.5 hPa SSW 4.8 km/h 11.3 km/h 97% 0 mm
10:53 5.4 °C 4.9 °C 1016.5 hPa South 9.7 km/h 9.7 km/h 97% 0 mm
10:58 5.4 °C 5 °C 1016.5 hPa South 6.4 km/h 11.3 km/h 97% 0 mm
11:03 5.5 °C 5.1 °C 1016.5 hPa SSW 6.4 km/h 11.3 km/h 97% 0 mm
11:08 5.6 °C 5.1 °C 1016.5 hPa South 6.4 km/h 8 km/h 97% 0 mm
11:13 5.6 °C 5.2 °C 1016.5 hPa South 4.8 km/h 11.3 km/h 97% 0 mm
11:18 5.7 °C 5.2 °C 1016.5 hPa SSW 4.8 km/h 9.7 km/h 97% 0 mm
11:23 5.8 °C 5.3 °C 1016.5 hPa SSE 8 km/h 8 km/h 97% 0 mm
11:28 5.8 °C 5.4 °C 1016.5 hPa South 6.4 km/h 8 km/h 97% 0 mm
11:33 5.9 °C 5.4 °C 1016.5 hPa South 1.6 km/h 8 km/h 97% 0 mm
11:38 6 °C 5.6 °C 1016.5 hPa South 6.4 km/h 9.7 km/h 97% 0 mm
11:43 6 °C 5.6 °C 1016.1 hPa SE 3.2 km/h 8 km/h 97% 0 mm
11:48 5.9 °C 5.5 °C 1016.1 hPa SW 4.8 km/h 9.7 km/h 97% 0 mm
11:53 6 °C 5.6 °C 1016.1 hPa SSE 9.7 km/h 11.3 km/h 97% 0 mm
11:58 6.1 °C 5.4 °C 1016.1 hPa South 8 km/h 9.7 km/h 96% 0 mm
12:03 6.1 °C 5.5 °C 1016.1 hPa SSW 4.8 km/h 8 km/h 96% 0 mm
12:08 6.2 °C 5.8 °C 1016.1 hPa SSW 3.2 km/h 8 km/h 97% 0 mm
12:13 6.3 °C 5.8 °C 1016.1 hPa South 4.8 km/h 6.4 km/h 97% 0 mm
12:18 6.4 °C 5.9 °C 1016.1 hPa SSE 6.4 km/h 8 km/h 97% 0 mm
12:23 6.4 °C 5.9 °C 1016.1 hPa SW 8 km/h 9.7 km/h 97% 0 mm
12:28 6.3 °C 5.7 °C 1016.1 hPa SW 1.6 km/h 9.7 km/h 96% 0 mm
12:33 6.4 °C 5.8 °C 1016.1 hPa WSW 4.8 km/h 8 km/h 96% 0 mm
12:38 6.4 °C 5.8 °C 1016.1 hPa WSW 6.4 km/h 8 km/h 96% 0 mm
12:43 6.4 °C 5.8 °C 1016.1 hPa West 4.8 km/h 9.7 km/h 96% 0 mm
12:49 6.4 °C 5.8 °C 1016.1 hPa WSW 6.4 km/h 9.7 km/h 96% 0 mm
12:54 6.4 °C 5.8 °C 1016.1 hPa WSW 6.4 km/h 9.7 km/h 96% 0 mm
12:59 6.4 °C 5.8 °C 1015.8 hPa SW 9.7 km/h 9.7 km/h 96% 0 mm
13:04 6.5 °C 5.9 °C 1015.8 hPa SW 6.4 km/h 9.7 km/h 96% 0 mm
13:09 6.6 °C 5.9 °C 1015.8 hPa South 6.4 km/h 8 km/h 96% 0 mm
13:14 6.6 °C 6 °C 1015.8 hPa SSW 6.4 km/h 11.3 km/h 96% 0 mm
13:19 6.6 °C 6 °C 1015.8 hPa SW 8 km/h 9.7 km/h 96% 0 mm
13:24 6.7 °C 6.1 °C 1015.8 hPa South 4.8 km/h 11.3 km/h 96% 0 mm
13:29 6.8 °C 6.2 °C 1015.8 hPa WSW 6.4 km/h 8 km/h 96% 0 mm
13:34 6.9 °C 6.3 °C 1015.8 hPa SSW 12.9 km/h 12.9 km/h 96% 0 mm
13:39 6.9 °C 6.3 °C 1015.8 hPa WSW 4.8 km/h 11.3 km/h 96% 0 mm
13:44 6.9 °C 6.3 °C 1015.5 hPa SW 8 km/h 9.7 km/h 96% 0 mm
13:49 7.1 °C 6.5 °C 1015.8 hPa WSW 6.4 km/h 8 km/h 96% 0 mm
13:54 7.2 °C 6.6 °C 1015.5 hPa SW 8 km/h 11.3 km/h 96% 0 mm
13:59 7.1 °C 6.4 °C 1015.5 hPa SW 8 km/h 12.9 km/h 95% 0 mm
14:04 7.1 °C 6.3 °C 1015.5 hPa WSW 6.4 km/h 9.7 km/h 95% 0 mm
14:09 7.1 °C 6.4 °C 1015.5 hPa WSW 9.7 km/h 9.7 km/h 95% 0 mm
14:14 7.1 °C 6.3 °C 1015.8 hPa WSW 6.4 km/h 9.7 km/h 95% 0 mm
14:19 7.1 °C 6.3 °C 1015.8 hPa West 3.2 km/h 11.3 km/h 95% 0 mm
14:24 7.2 °C 6.4 °C 1015.8 hPa WSW 8 km/h 9.7 km/h 95% 0 mm
14:30 7.2 °C 6.5 °C 1015.8 hPa WSW 8 km/h 9.7 km/h 95% 0 mm
14:35 7.2 °C 6.5 °C 1015.8 hPa WSW 4.8 km/h 9.7 km/h 95% 0 mm
14:41 7.3 °C 6.6 °C 1015.8 hPa WSW 6.4 km/h 11.3 km/h 95% 0 mm
14:46 7.3 °C 6.4 °C 1015.8 hPa WSW 4.8 km/h 12.9 km/h 94% 0 mm
14:51 7.3 °C 6.4 °C 1015.8 hPa SW 6.4 km/h 9.7 km/h 94% 0 mm
14:56 7.3 °C 6.4 °C 1015.8 hPa SW 6.4 km/h 12.9 km/h 94% 0 mm
15:01 7.3 °C 6.4 °C 1015.8 hPa SSW 11.3 km/h 11.3 km/h 94% 0 mm
15:06 7.3 °C 6.4 °C 1015.8 hPa SW 4.8 km/h 8 km/h 94% 0 mm
15:11 7.4 °C 6.5 °C 1015.8 hPa WSW 4.8 km/h 8 km/h 94% 0 mm
15:16 7.4 °C 6.6 °C 1015.8 hPa SW 3.2 km/h 9.7 km/h 94% 0 mm
15:21 7.6 °C 6.7 °C 1015.8 hPa SW 4.8 km/h 8 km/h 94% 0 mm
15:26 7.6 °C 6.7 °C 1015.8 hPa SW 8 km/h 11.3 km/h 94% 0 mm
15:31 7.6 °C 6.6 °C 1015.8 hPa SW 8 km/h 11.3 km/h 93% 0 mm
15:36 7.7 °C 6.7 °C 1016.1 hPa WSW 4.8 km/h 9.7 km/h 93% 0 mm
15:41 7.9 °C 6.8 °C 1016.1 hPa SW 6.4 km/h 8 km/h 93% 0 mm
15:46 7.9 °C 6.9 °C 1016.1 hPa SW 8 km/h 9.7 km/h 93% 0 mm
15:51 7.9 °C 6.7 °C 1016.1 hPa WSW 9.7 km/h 9.7 km/h 92% 0 mm
15:56 7.9 °C 6.8 °C 1016.1 hPa SW 8 km/h 12.9 km/h 93% 0 mm
16:01 7.8 °C 6.6 °C 1016.1 hPa SW 6.4 km/h 9.7 km/h 92% 0 mm
16:06 7.8 °C 6.7 °C 1016.5 hPa SW 3.2 km/h 9.7 km/h 93% 0 mm
16:11 7.8 °C 6.7 °C 1016.5 hPa SW 8 km/h 8 km/h 93% 0 mm
16:16 7.8 °C 6.7 °C 1016.5 hPa SSW 1.6 km/h 8 km/h 93% 0 mm
16:21 7.8 °C 6.7 °C 1016.5 hPa SSW 1.6 km/h 8 km/h 93% 0 mm
16:26 7.8 °C 6.7 °C 1016.5 hPa SW 6.4 km/h 9.7 km/h 93% 0 mm
16:31 7.8 °C 6.7 °C 1016.5 hPa SW 6.4 km/h 6.4 km/h 93% 0 mm
16:36 7.8 °C 6.7 °C 1016.5 hPa SW 4.8 km/h 8 km/h 93% 0 mm
16:41 7.8 °C 6.8 °C 1016.5 hPa SW 6.4 km/h 6.4 km/h 93% 0 mm
16:46 7.8 °C 6.8 °C 1016.5 hPa SW 4.8 km/h 6.4 km/h 93% 0 mm
16:51 7.8 °C 6.6 °C 1016.5 hPa SW 4.8 km/h 8 km/h 92% 0 mm
16:56 7.8 °C 6.8 °C 1016.5 hPa SW 6.4 km/h 8 km/h 93% 0 mm
17:01 7.8 °C 6.6 °C 1016.8 hPa SW 8 km/h 9.7 km/h 92% 0 mm
17:06 7.8 °C 6.6 °C 1016.5 hPa SW 6.4 km/h 9.7 km/h 92% 0 mm
17:11 7.8 °C 6.6 °C 1016.8 hPa WSW 1.6 km/h 4.8 km/h 92% 0 mm
17:16 7.9 °C 6.7 °C 1016.8 hPa WSW 3.2 km/h 3.2 km/h 92% 0 mm
17:21 7.8 °C 6.6 °C 1016.8 hPa West 1.6 km/h 4.8 km/h 92% 0 mm
17:26 7.8 °C 6.6 °C 1016.8 hPa West 3.2 km/h 3.2 km/h 92% 0 mm
17:31 7.8 °C 6.6 °C 1016.8 hPa West 1.6 km/h 3.2 km/h 92% 0 mm
17:37 7.7 °C 6.3 °C 1016.8 hPa West 3.2 km/h 8 km/h 91% 0 mm
17:42 7.7 °C 6.3 °C 1016.8 hPa West 3.2 km/h 4.8 km/h 91% 0 mm
17:47 7.7 °C 6.4 °C 1017.2 hPa West 1.6 km/h 4.8 km/h 92% 0 mm
17:52 7.7 °C 6.4 °C 1017.2 hPa West 1.6 km/h 6.4 km/h 92% 0 mm
17:57 7.6 °C 6.4 °C 1017.2 hPa WSW 1.6 km/h 3.2 km/h 92% 0 mm
18:02 7.6 °C 6.2 °C 1017.2 hPa WSW 1.6 km/h 6.4 km/h 91% 0 mm
18:07 7.6 °C 6.3 °C 1017.2 hPa West 1.6 km/h 3.2 km/h 92% 0 mm
18:12 7.4 °C 6.1 °C 1017.2 hPa WNW 6.4 km/h 6.4 km/h 91% 0 mm
18:17 7.4 °C 6 °C 1017.2 hPa WNW 3.2 km/h 6.4 km/h 91% 0 mm
18:22 7.3 °C 6.1 °C 1017.5 hPa WNW 1.6 km/h 4.8 km/h 92% 0 mm
18:27 7.2 °C 6 °C 1017.5 hPa WNW 1.6 km/h 4.8 km/h 92% 0 mm
18:32 7.2 °C 5.9 °C 1017.5 hPa WNW 3.2 km/h 4.8 km/h 92% 0 mm
18:37 7.2 °C 5.8 °C 1017.5 hPa WNW 3.2 km/h 4.8 km/h 91% 0 mm
18:42 7.1 °C 5.9 °C 1017.5 hPa Calm   1.6 km/h 92% 0 mm
18:47 7.1 °C 5.8 °C 1017.5 hPa Calm   1.6 km/h 92% 0 mm
18:52 7.1 °C 5.8 °C 1017.5 hPa Calm     92% 0 mm
18:57 7 °C 5.8 °C 1017.5 hPa NW 1.6 km/h 1.6 km/h 92% 0 mm
19:02 6.9 °C 5.7 °C 1017.8 hPa NNW 1.6 km/h 3.2 km/h 92% 0 mm
19:07 6.9 °C 5.7 °C 1017.8 hPa NW 4.8 km/h 4.8 km/h 92% 0 mm
19:12 6.9 °C 5.7 °C 1017.8 hPa NNW 4.8 km/h 6.4 km/h 92% 0 mm
19:17 6.9 °C 5.7 °C 1017.8 hPa NW 3.2 km/h 6.4 km/h 92% 0 mm
19:22 6.9 °C 5.7 °C 1017.8 hPa NW 4.8 km/h 4.8 km/h 92% 0 mm
19:27 6.9 °C 5.7 °C 1017.8 hPa NW 3.2 km/h 3.2 km/h 92% 0 mm
19:32 6.8 °C 5.6 °C 1018.2 hPa NW 1.6 km/h 3.2 km/h 92% 0 mm
19:37 6.8 °C 5.6 °C 1018.2 hPa NW 3.2 km/h 4.8 km/h 92% 0 mm
19:42 6.8 °C 5.6 °C 1018.2 hPa NW 1.6 km/h 3.2 km/h 92% 0 mm
19:47 6.7 °C 5.5 °C 1018.5 hPa NW 1.6 km/h 3.2 km/h 92% 0 mm
19:52 6.7 °C 5.6 °C 1018.5 hPa NW 1.6 km/h 3.2 km/h 93% 0 mm
19:57 6.6 °C 5.4 °C 1018.5 hPa NW 1.6 km/h 6.4 km/h 92% 0 mm
20:02 6.6 °C 5.4 °C 1018.5 hPa NW 3.2 km/h 4.8 km/h 92% 0 mm
20:07 6.6 °C 5.5 °C 1018.5 hPa West 1.6 km/h 3.2 km/h 93% 0 mm
20:12 6.5 °C 5.4 °C 1018.5 hPa Calm   1.6 km/h 93% 0 mm
20:17 6.5 °C 5.4 °C 1018.5 hPa WNW 1.6 km/h 1.6 km/h 93% 0 mm
20:22 6.4 °C 5.4 °C 1018.8 hPa WNW 1.6 km/h 1.6 km/h 93% 0 mm
20:28 6.4 °C 5.4 °C 1018.8 hPa Calm   3.2 km/h 93% 0 mm
20:33 6.4 °C 5.4 °C 1018.8 hPa NW 1.6 km/h 3.2 km/h 93% 0 mm
20:38 6.4 °C 5.3 °C 1018.8 hPa NW 3.2 km/h 3.2 km/h 93% 0 mm
20:43 6.3 °C 5.3 °C 1019.2 hPa NW 4.8 km/h 4.8 km/h 93% 0 mm
20:48 6.3 °C 5.3 °C 1019.2 hPa NNW 1.6 km/h 3.2 km/h 93% 0 mm
20:53 6.3 °C 5.2 °C 1019.2 hPa NNW 1.6 km/h 3.2 km/h 93% 0 mm
20:58 6.3 °C 5.2 °C 1019.2 hPa North 1.6 km/h 1.6 km/h 93% 0 mm
21:03 6.3 °C 5.2 °C 1018.8 hPa NNE 1.6 km/h 3.2 km/h 93% 0 mm
21:08 6.2 °C 5.2 °C 1019.2 hPa Calm   1.6 km/h 93% 0 mm
21:13 6.2 °C 5.2 °C 1019.2 hPa North 3.2 km/h 4.8 km/h 93% 0 mm
21:18 6.2 °C 5.1 °C 1019.2 hPa North 1.6 km/h 1.6 km/h 93% 0 mm
21:23 6.2 °C 5.3 °C 1019.2 hPa North 1.6 km/h 1.6 km/h 94% 0 mm
21:28 6.1 °C 5.2 °C 1019.5 hPa North 1.6 km/h 1.6 km/h 94% 0 mm
21:33 6.1 °C 5.2 °C 1019.5 hPa Calm     94% 0 mm
21:38 6.1 °C 5.2 °C 1019.5 hPa Calm     94% 0 mm
21:43 6 °C 5.1 °C 1019.5 hPa Calm     94% 0 mm
21:48 5.9 °C 5.1 °C 1019.5 hPa North 1.6 km/h 1.6 km/h 94% 0 mm
21:53 5.9 °C 5.1 °C 1019.5 hPa Calm   1.6 km/h 94% 0 mm
21:58 5.9 °C 5 °C 1019.5 hPa Calm     94% 0 mm
22:03 5.8 °C 4.9 °C 1019.9 hPa Calm     94% 0 mm
22:08 5.8 °C 4.9 °C 1019.9 hPa Calm     94% 0 mm
22:13 5.8 °C 4.9 °C 1019.9 hPa Calm     94% 0 mm
22:18 5.8 °C 4.9 °C 1019.9 hPa North 1.6 km/h 1.6 km/h 94% 0 mm
22:23 5.9 °C 5 °C 1020.2 hPa Calm   1.6 km/h 94% 0 mm
22:28 5.9 °C 5.1 °C 1020.2 hPa East 3.2 km/h 3.2 km/h 94% 0 mm
22:33 5.9 °C 5 °C 1020.2 hPa East 1.6 km/h 3.2 km/h 94% 0 mm
22:39 5.9 °C 5 °C 1020.2 hPa East 1.6 km/h 1.6 km/h 94% 0 mm
22:44 5.9 °C 5 °C 1020.2 hPa Calm   1.6 km/h 94% 0 mm
22:49 5.9 °C 5 °C 1019.9 hPa East 1.6 km/h 1.6 km/h 94% 0 mm
22:54 5.9 °C 5 °C 1019.9 hPa East 1.6 km/h 1.6 km/h 94% 0 mm
22:59 5.9 °C 5 °C 1019.9 hPa Calm   1.6 km/h 94% 0 mm
23:04 5.8 °C 4.9 °C 1019.9 hPa East 3.2 km/h 3.2 km/h 94% 0 mm
23:09 5.8 °C 5.1 °C 1019.9 hPa East 3.2 km/h 4.8 km/h 95% 0 mm
23:14 5.8 °C 5.1 °C 1019.9 hPa East 3.2 km/h 3.2 km/h 95% 0 mm
23:19 5.8 °C 5.1 °C 1019.9 hPa ENE 1.6 km/h 3.2 km/h 95% 0 mm
23:24 5.8 °C 5.1 °C 1019.9 hPa East 1.6 km/h 3.2 km/h 95% 0 mm
23:29 5.8 °C 5.1 °C 1019.9 hPa Calm   1.6 km/h 95% 0 mm
23:34 5.8 °C 5.1 °C 1019.9 hPa ENE 3.2 km/h 3.2 km/h 95% 0 mm
23:39 5.8 °C 5.1 °C 1020.2 hPa Calm   1.6 km/h 95% 0 mm
23:44 5.7 °C 5 °C 1020.2 hPa ENE 1.6 km/h 3.2 km/h 95% 0 mm
23:49 5.7 °C 5 °C 1020.2 hPa ESE 3.2 km/h 3.2 km/h 95% 0 mm
23:54 5.7 °C 5 °C 1020.2 hPa East 3.2 km/h 4.8 km/h 95% 0 mm
23:59 5.7 °C 5 °C 1020.2 hPa East 3.2 km/h 4.8 km/h 95% 0 mm
Compliments of Weather Underground